Date String (YYYY-MM-DD hh:mm:ss) UTC,Instrument flags,Ambient pressure (hPa),Sample flow (lpm),Bypass flow (lpm),Sample temperature (°C),Ambient temperature (°C),ASC tube jacket temperature (°C),LED temperature (°C),Box temperature (°C),Sample RH (%),Span deviation,Mass concentration (μg/m³),Mass concentration (μg/m³),Mass concentration (μg/m³)
DateTimeUTC,F1_M11,P_M11,Q1_M11,Q2_M11,T1_M11,T2_M11,T3_M11,T4_M11,T5_M11,U1_M11,ZSPAN_M11,X2_M11,X0_M11,X1_M11
2022-03-09 16:00:00,,0821.0,5.01,0.00,22.8,23.1,00.0,31.6,24.7,07.1,0000.0,0001.91,0003.72,0001.55
2022-03-09 16:01:00,,0821.0,5.00,0.00,22.8,22.7,00.0,31.6,24.6,07.2,0000.0,0001.93,0003.83,0001.57
2022-03-09 16:02:00,,0821.1,4.99,0.00,22.7,22.4,00.0,31.6,24.5,07.1,0000.0,0001.92,0003.67,0001.60
2022-03-09 16:03:00,,0821.1,5.02,0.00,22.7,22.1,00.0,31.6,24.4,07.3,0000.0,0001.90,0003.57,0001.62
2022-03-09 16:04:00,,0821.1,5.00,0.00,22.7,21.9,00.0,31.6,24.3,07.3,0000.0,0001.91,0003.57,0001.62
2022-03-09 16:05:00,,0821.2,4.99,0.00,22.6,21.7,00.0,31.6,24.2,07.2,0000.0,0001.91,0003.57,0001.63
2022-03-09 16:06:00,,0821.2,4.99,0.00,22.6,22.0,00.0,31.6,24.2,07.2,0000.0,0001.91,0004.19,0001.64
2022-03-09 16:07:00,,0821.2,5.01,0.00,22.7,22.9,00.0,31.6,24.5,07.2,0000.0,0001.91,0004.35,0001.64
2022-03-09 16:08:00,,0821.2,5.00,0.00,22.8,23.6,00.0,31.7,24.7,07.1,0000.0,0001.90,0003.72,0001.63
2022-03-09 16:09:00,,0821.2,4.99,0.00,22.9,23.6,00.0,31.7,24.8,07.2,0000.0,0001.93,0003.80,0001.64
2022-03-09 16:10:00,,0821.1,5.01,0.00,22.9,23.2,00.0,31.7,24.8,07.1,0000.0,0001.93,0003.76,0001.65
2022-03-09 16:11:00,,0821.1,5.00,0.00,22.9,22.8,00.0,31.7,24.7,07.1,0000.0,0001.92,0003.65,0001.66
2022-03-09 16:12:00,,0821.1,5.00,0.00,22.8,22.5,00.0,31.7,24.5,06.9,0000.0,0001.91,0003.93,0001.66
2022-03-09 16:13:00,,0821.1,5.02,0.00,22.8,22.2,00.0,31.7,24.4,06.9,0000.0,0001.94,0004.59,0001.66
2022-03-09 16:14:00,,0821.1,4.99,0.00,22.7,21.9,00.0,31.7,24.3,07.0,0000.0,0001.98,0004.68,0001.67
2022-03-09 16:15:00,,0821.1,5.00,0.00,22.7,22.0,00.0,31.7,24.3,07.1,0000.0,0002.00,0004.73,0001.69
2022-03-09 16:16:00,,0821.1,5.00,0.00,22.8,22.8,00.0,31.8,24.5,07.1,0000.0,0002.02,0004.83,0001.71
2022-03-09 16:17:00,,0821.2,4.99,0.00,22.9,23.6,00.0,31.8,24.8,07.0,0000.0,0002.07,0005.24,0001.71
2022-03-09 16:18:00,,0821.1,5.00,0.00,23.0,23.7,00.0,31.8,24.9,07.1,0000.0,0002.07,0004.53,0001.71
2022-03-09 16:19:00,,0821.1,5.01,0.00,23.0,23.2,00.0,31.8,24.9,07.3,0000.0,0002.08,0004.53,0001.71
2022-03-09 16:20:00,,0821.0,4.99,0.00,23.0,22.8,00.0,31.8,24.8,07.4,0000.0,0002.09,0004.59,0001.71
2022-03-09 16:21:00,,0821.0,5.00,0.00,22.9,22.5,00.0,31.8,24.6,07.5,0000.0,0002.13,0004.81,0001.71
2022-03-09 16:22:00,,0821.0,5.01,0.00,22.9,22.3,00.0,31.8,24.5,07.6,0000.0,0002.14,0004.81,0001.72
2022-03-09 16:23:00,,0821.1,5.00,0.00,22.8,22.1,00.0,31.8,24.4,07.6,0000.0,0002.13,0004.58,0001.72
2022-03-09 16:24:00,,0821.1,4.99,0.00,22.8,22.1,00.0,31.8,24.3,07.7,0000.0,0002.14,0003.79,0001.72
2022-03-09 16:25:00,,0821.1,5.00,0.00,22.8,22.8,00.0,31.8,24.6,07.6,0000.0,0002.10,0003.74,0001.71
2022-03-09 16:26:00,,0821.1,5.01,0.00,23.0,23.6,00.0,31.9,24.9,07.4,0000.0,0002.08,0003.81,0001.69
2022-03-09 16:27:00,,0821.0,4.99,0.00,23.1,23.7,00.0,31.9,25.0,07.3,0000.0,0002.14,0004.35,0001.70
2022-03-09 16:28:00,,0821.1,5.00,0.00,23.1,23.3,00.0,31.9,24.9,07.1,0000.0,0002.11,0004.05,0001.74
2022-03-09 16:29:00,,0821.1,5.00,0.00,23.0,22.9,00.0,31.9,24.8,07.1,0000.0,0002.17,0004.79,0001.77
2022-03-09 16:30:00,,0821.1,5.01,0.00,23.0,22.5,00.0,31.9,24.6,07.2,0000.0,0002.19,0004.99,0001.78
2022-03-09 16:31:00,,0821.1,5.00,0.00,22.9,22.3,00.0,31.9,24.5,07.4,0000.0,0002.19,0005.02,0001.80
2022-03-09 16:32:00,,0821.2,5.02,0.00,22.8,22.1,00.0,31.9,24.4,07.4,0000.0,0002.17,0004.84,0001.83
2022-03-09 16:33:00,,0821.1,5.00,0.00,22.8,22.5,00.0,31.9,24.5,07.3,0000.0,0002.19,0004.86,0001.85
2022-03-09 16:34:00,,0821.1,4.99,0.00,23.0,23.3,00.0,31.9,24.8,07.2,0000.0,0002.25,0004.92,0001.89
2022-03-09 16:35:00,,0821.1,5.01,0.00,23.1,23.8,00.0,32.0,25.0,07.1,0000.0,0002.24,0004.91,0001.91
2022-03-09 16:36:00,,0821.2,5.00,0.00,23.1,23.5,00.0,32.0,25.0,07.0,0000.0,0002.23,0005.51,0001.92
2022-03-09 16:37:00,,0821.1,4.99,0.00,23.1,23.1,00.0,32.0,24.9,07.0,0000.0,0002.24,0006.57,0001.93
2022-03-09 16:38:00,,0821.0,5.01,0.00,23.0,22.7,00.0,32.0,24.7,07.2,0000.0,0002.18,0006.07,0001.91
2022-03-09 16:39:00,,0821.0,4.99,0.00,23.0,22.3,00.0,32.0,24.6,07.1,0000.0,0002.17,0005.69,0001.89
2022-03-09 16:40:00,,0821.0,4.99,0.00,22.9,22.1,00.0,32.0,24.5,07.1,0000.0,0002.12,0005.06,0001.87
2022-03-09 16:41:00,,0821.1,5.00,0.00,22.9,22.5,00.0,32.0,24.5,06.9,0000.0,0002.13,0004.98,0001.87
2022-03-09 16:42:00,,0821.2,5.01,0.00,23.0,23.3,00.0,32.0,24.8,06.6,0000.0,0002.12,0004.84,0001.86
2022-03-09 16:43:00,,0821.2,4.99,0.00,23.1,23.8,00.0,32.0,25.0,06.7,0000.0,0002.11,0004.85,0001.84
2022-03-09 16:44:00,,0821.2,5.01,0.00,23.2,23.6,00.0,32.0,25.0,06.8,0000.0,0002.14,0004.95,0001.83
2022-03-09 16:45:00,,0821.1,4.99,0.00,23.1,23.2,00.0,32.0,24.9,06.8,0000.0,0002.12,0004.98,0001.81
2022-03-09 16:46:00,,0821.1,5.01,0.00,23.1,22.8,00.0,32.0,24.8,06.8,0000.0,0002.15,0005.18,0001.78
2022-03-09 16:47:00,,0821.1,5.00,0.00,23.0,22.4,00.0,32.0,24.7,06.9,0000.0,0002.16,0004.58,0001.76
2022-03-09 16:48:00,,0821.1,4.99,0.00,22.9,22.2,00.0,32.0,24.6,07.0,0000.0,0002.11,0003.47,0001.73
2022-03-09 16:49:00,,0821.1,5.00,0.00,23.0,22.7,00.0,32.0,24.6,07.1,0000.0,0002.10,0003.38,0001.71
2022-03-09 16:50:00,,0821.1,5.02,0.00,23.1,23.4,00.0,32.0,24.8,07.0,0000.0,0002.06,0003.33,0001.67
2022-03-09 16:51:00,,0821.1,4.99,0.00,23.2,23.5,00.0,32.1,25.0,07.0,0000.0,0002.01,0003.14,0001.65
2022-03-09 16:52:00,,0821.1,5.00,0.00,23.1,23.1,00.0,32.1,24.9,07.1,0000.0,0001.99,0003.12,0001.62
2022-03-09 16:53:00,,0821.1,5.03,0.00,23.1,22.8,00.0,32.1,24.8,07.3,0000.0,0001.97,0003.11,0001.58
2022-03-09 16:54:00,,0821.2,5.00,0.00,23.0,22.5,00.0,32.0,24.7,07.4,0000.0,0001.97,0004.01,0001.56
2022-03-09 16:55:00,,0821.1,4.99,0.00,23.0,22.1,00.0,32.0,24.6,07.6,0000.0,0001.91,0005.13,0001.52
2022-03-09 16:56:00,,0821.1,5.02,0.00,22.9,22.2,00.0,32.0,24.5,07.6,0000.0,0001.84,0005.17,0001.48
2022-03-09 16:57:00,,0821.1,4.98,0.00,23.0,22.9,00.0,32.0,24.7,07.6,0000.0,0001.76,0005.94,0001.44
2022-03-09 16:58:00,,0821.1,5.01,0.00,23.1,23.7,00.0,32.1,25.0,07.5,0000.0,0001.72,0007.09,0001.39
2022-03-09 16:59:00,,0821.1,4.99,0.00,23.2,23.8,00.0,32.1,25.1,07.4,0000.0,0001.72,0007.20,0001.35
